| time (UTC) | temp C | wind direction | speed KPH | gust KPH | rain 1hr cm | rain 24hr cm | rain mn cm | humidity % | barometer mb |
| 20260831110255 | 21 | 261 | 0.0 | 0.0 | 0.00 | 0.00 | 0.00 | 75 | 1016.2 |
| 20260831105753 | 22 | 259 | 0.0 | 0.0 | 0.00 | 0.00 | 0.00 | 74 | 1016.1 |
| 20260831105249 | 22 | 260 | 0.0 | 0.0 | 0.00 | 0.00 | 0.00 | 74 | 1016.1 |
| 20260831104749 | 22 | 263 | 0.0 | 0.0 | 0.00 | 0.00 | 0.00 | 72 | 1016.2 |
| 20260831104246 | 22 | 241 | 0.0 | 0.0 | 0.00 | 0.00 | 0.00 | 71 | 1016.2 |
| 20260831103746 | 23 | 247 | 0.0 | 1.6 | 0.00 | 0.00 | 0.00 | 70 | 1016.1 |
| 20260831103242 | 23 | 225 | 0.0 | 1.6 | 0.00 | 0.00 | 0.00 | 69 | 1016.3 |
| 20260831102741 | 23 | 249 | 0.0 | 0.0 | 0.00 | 0.00 | 0.00 | 68 | 1015.9 |
| 20260831102236 | 23 | 249 | 0.0 | 0.0 | 0.00 | 0.00 | 0.00 | 67 | 1015.9 |
| 20260831101732 | 23 | 262 | 0.0 | 0.0 | 0.00 | 0.00 | 0.00 | 66 | 1015.9 |
| 20260831101227 | 23 | 220 | 0.0 | 0.0 | 0.00 | 0.00 | 0.00 | 67 | 1016.1 |
| 20260831100723 | 23 | 141 | 1.6 | 1.6 | 0.00 | 0.00 | 0.00 | 65 | 1015.9 |
| 20260831100219 | 23 | 192 | 0.0 | 1.6 | 0.00 | 0.00 | 0.00 | 65 | 1016.1 |
| 20260831095718 | 24 | 240 | 0.0 | 1.6 | 0.00 | 0.00 | 0.00 | 65 | 1015.8 |
| 20260831095213 | 24 | 179 | 1.6 | 1.6 | 0.00 | 0.00 | 0.00 | 64 | 1015.8 |
| 20260831094708 | 24 | 195 | 3.2 | 4.8 | 0.00 | 0.00 | 0.00 | 64 | 1015.9 |
| 20260831094204 | 24 | 102 | 3.2 | 4.8 | 0.00 | 0.00 | 0.00 | 62 | 1015.9 |
| 20260831093659 | 24 | 216 | 1.6 | 1.6 | 0.00 | 0.00 | 0.00 | 63 | 1015.9 |
| 20260831093155 | 24 | 261 | 0.0 | 0.0 | 0.00 | 0.00 | 0.00 | 64 | 1015.9 |
| 20260831092651 | 24 | 225 | 1.6 | 1.6 | 0.00 | 0.00 | 0.00 | 64 | 1015.9 |
| 20260831092147 | 24 | 185 | 3.2 | 4.8 | 0.00 | 0.00 | 0.00 | 62 | 1015.7 |
| 20260831091645 | 25 | 228 | 1.6 | 4.8 | 0.00 | 0.00 | 0.00 | 61 | 1015.7 |
| 20260831091142 | 25 | 222 | 0.0 | 1.6 | 0.00 | 0.00 | 0.00 | 61 | 1015.8 |
| 20260831090637 | 25 | 251 | 0.0 | 0.0 | 0.00 | 0.00 | 0.00 | 61 | 1015.7 |
| 20260831090133 | 25 | 215 | 1.6 | 1.6 | 0.00 | 0.00 | 0.00 | 61 | 1015.6 |
| 20260831085628 | 25 | 223 | 1.6 | 1.6 | 0.00 | 0.00 | 0.00 | 60 | 1015.5 |
| 20260831085123 | 25 | 133 | 3.2 | 4.8 | 0.00 | 0.00 | 0.00 | 60 | 1015.4 |
| 20260831084619 | 25 | 97 | 4.8 | 4.8 | 0.00 | 0.00 | 0.00 | 60 | 1015.5 |
| 20260831084115 | 25 | 197 | 0.0 | 1.6 | 0.00 | 0.00 | 0.00 | 60 | 1015.6 |
| 20260831083611 | 25 | 208 | 1.6 | 1.6 | 0.00 | 0.00 | 0.00 | 60 | 1015.6 |
| 20260831083106 | 25 | 99 | 1.6 | 1.6 | 0.00 | 0.00 | 0.00 | 59 | 1015.6 |
| 20260831082604 | 25 | 103 | 3.2 | 4.8 | 0.00 | 0.00 | 0.00 | 59 | 1015.5 |
| 20260831082059 | 25 | 125 | 3.2 | 4.8 | 0.00 | 0.00 | 0.00 | 59 | 1015.5 |
| 20260831081555 | 25 | 202 | 3.2 | 4.8 | 0.00 | 0.00 | 0.00 | 58 | 1015.4 |
| 20260831081051 | 25 | 182 | 3.2 | 4.8 | 0.00 | 0.00 | 0.00 | 58 | 1015.4 |
| 20260831080546 | 25 | 232 | 3.2 | 4.8 | 0.00 | 0.00 | 0.00 | 60 | 1015.2 |
| 20260831080041 | 25 | 243 | 0.0 | 1.6 | 0.00 | 0.00 | 0.00 | 62 | 1015.3 |
| 20260831075536 | 25 | 125 | 3.2 | 4.8 | 0.00 | 0.00 | 0.00 | 60 | 1015.4 |
| 20260831075032 | 25 | 96 | 3.2 | 4.8 | 0.00 | 0.00 | 0.00 | 60 | 1015.3 |
| 20260831074531 | 25 | 179 | 0.0 | 1.6 | 0.00 | 0.00 | 0.00 | 61 | 1015.3 |
| 20260831074031 | 25 | 216 | 0.0 | 1.6 | 0.00 | 0.00 | 0.00 | 60 | 1015.3 |
| 20260831073526 | 25 | 83 | 1.6 | 1.6 | 0.00 | 0.00 | 0.00 | 61 | 1015.4 |
| 20260831073025 | 25 | 240 | 0.0 | 0.0 | 0.00 | 0.00 | 0.00 | 60 | 1015.4 |
| 20260831072521 | 24 | 208 | 0.0 | 1.6 | 0.00 | 0.00 | 0.00 | 61 | 1015.3 |
| 20260831072017 | 23 | 236 | 0.0 | 0.0 | 0.00 | 0.00 | 0.00 | 64 | 1015.4 |
| 20260831071516 | 24 | 236 | 0.0 | 1.6 | 0.00 | 0.00 | 0.00 | 65 | 1015.3 |
| 20260831071012 | 24 | 211 | 0.0 | 1.6 | 0.00 | 0.00 | 0.00 | 64 | 1015.4 |
| 20260831070510 | 24 | 221 | 0.0 | 1.6 | 0.00 | 0.00 | 0.00 | 62 | 1015.3 |
| 20260831070005 | 24 | 258 | 0.0 | 0.0 | 0.00 | 0.00 | 0.00 | 62 | 1015.4 |
| 20260831065503 | 24 | 213 | 1.6 | 1.6 | 0.00 | 0.00 | 0.00 | 65 | 1015.5 |
| 20260831064957 | 24 | 163 | 1.6 | 1.6 | 0.00 | 0.00 | 0.00 | 63 | 1015.4 |
| 20260831064452 | 24 | 247 | 0.0 | 0.0 | 0.00 | 0.00 | 0.00 | 65 | 1015.6 |
| 20260831063948 | 24 | 243 | 0.0 | 0.0 | 0.00 | 0.00 | 0.00 | 64 | 1015.6 |
| 20260831063443 | 24 | 220 | 1.6 | 1.6 | 0.00 | 0.00 | 0.00 | 64 | 1015.4 |
| 20260831062937 | 24 | 158 | 1.6 | 1.6 | 0.00 | 0.00 | 0.00 | 64 | 1015.4 |
| 20260831062433 | 24 | 143 | 1.6 | 1.6 | 0.00 | 0.00 | 0.00 | 65 | 1015.3 |
| 20260831061932 | 25 | 223 | 1.6 | 1.6 | 0.00 | 0.00 | 0.00 | 65 | 1015.4 |
| 20260831061430 | 25 | 192 | 1.6 | 1.6 | 0.00 | 0.00 | 0.00 | 65 | 1015.6 |
| 20260831060927 | 25 | 97 | 1.6 | 1.6 | 0.00 | 0.00 | 0.00 | 66 | 1015.6 |
| 20260831060421 | 25 | 234 | 0.0 | 1.6 | 0.00 | 0.00 | 0.00 | 62 | 1015.5 |
| 20260831055920 | 25 | 167 | 3.2 | 4.8 | 0.00 | 0.00 | 0.00 | 63 | 1015.6 |
| 20260831055415 | 25 | 88 | 3.2 | 4.8 | 0.00 | 0.00 | 0.00 | 64 | 1015.5 |
| 20260831054911 | 25 | 236 | 1.6 | 1.6 | 0.00 | 0.00 | 0.00 | 63 | 1015.5 |
| 20260831054407 | 25 | 177 | 1.6 | 1.6 | 0.00 | 0.00 | 0.00 | 62 | 1015.5 |
| 20260831053906 | 25 | 183 | 1.6 | 4.8 | 0.00 | 0.00 | 0.00 | 63 | 1015.6 |
| 20260831053404 | 25 | 167 | 3.2 | 4.8 | 0.00 | 0.00 | 0.00 | 62 | 1015.5 |
| 20260831052859 | 25 | 80 | 1.6 | 1.6 | 0.00 | 0.00 | 0.00 | 65 | 1015.3 |
| 20260831052358 | 25 | 208 | 1.6 | 1.6 | 0.00 | 0.00 | 0.00 | 66 | 1015.5 |
| 20260831051856 | 25 | 108 | 1.6 | 1.6 | 0.00 | 0.00 | 0.00 | 65 | 1015.3 |
| 20260831051354 | 24 | 203 | 1.6 | 1.6 | 0.00 | 0.00 | 0.00 | 65 | 1015.5 |
| 20260831050850 | 24 | 116 | 1.6 | 1.6 | 0.00 | 0.00 | 0.00 | 67 | 1015.4 |
| 20260831050344 | 25 | 113 | 1.6 | 4.8 | 0.00 | 0.00 | 0.00 | 65 | 1015.4 |
| 20260831045844 | 25 | 228 | 0.0 | 1.6 | 0.00 | 0.00 | 0.00 | 62 | 1015.3 |
| 20260831045343 | 25 | 228 | 0.0 | 1.6 | 0.00 | 0.00 | 0.00 | 64 | 1015.4 |
| 20260831044838 | 26 | 229 | 0.0 | 1.6 | 0.00 | 0.00 | 0.00 | 61 | 1015.3 |
| 20260831044338 | 26 | 248 | 0.0 | 0.0 | 0.00 | 0.00 | 0.00 | 60 | 1015.3 |
| 20260831043835 | 26 | 203 | 1.6 | 1.6 | 0.00 | 0.00 | 0.00 | 59 | 1015.4 |
| 20260831043334 | 26 | 219 | 0.0 | 0.0 | 0.00 | 0.00 | 0.00 | 59 | 1015.2 |
| 20260831042829 | 26 | 232 | 0.0 | 0.0 | 0.00 | 0.00 | 0.00 | 61 | 1015.0 |
| 20260831042328 | 26 | 178 | 1.6 | 1.6 | 0.00 | 0.00 | 0.00 | 59 | 1015.2 |
| 20260831041824 | 26 | 181 | 1.6 | 1.6 | 0.00 | 0.00 | 0.00 | 60 | 1014.9 |
| 20260831041323 | 25 | 220 | 1.6 | 1.6 | 0.00 | 0.00 | 0.00 | 63 | 1015.1 |
| 20260831040818 | 26 | 125 | 1.6 | 1.6 | 0.00 | 0.00 | 0.00 | 60 | 1015.0 |
| 20260831040318 | 26 | 165 | 0.0 | 1.6 | 0.00 | 0.00 | 0.00 | 59 | 1015.0 |
| 20260831035816 | 25 | 156 | 1.6 | 1.6 | 0.00 | 0.00 | 0.00 | 59 | 1014.8 |
| 20260831035316 | 25 | 74 | 0.0 | 1.6 | 0.00 | 0.00 | 0.00 | 62 | 1014.9 |
| 20260831034815 | 26 | 288 | 0.0 | 0.0 | 0.00 | 0.00 | 0.00 | 59 | 1014.8 |
| 20260831034311 | 25 | 242 | 0.0 | 0.0 | 0.00 | 0.00 | 0.00 | 60 | 1014.8 |
| 20260831033807 | 25 | 154 | 3.2 | 6.4 | 0.00 | 0.00 | 0.00 | 61 | 1014.8 |
| 20260831033306 | 25 | 237 | 0.0 | 0.0 | 0.00 | 0.00 | 0.00 | 63 | 1014.6 |
| 20260831032802 | 24 | 254 | 0.0 | 0.0 | 0.00 | 0.00 | 0.00 | 64 | 1014.6 |
| 20260831032256 | 23 | 257 | 0.0 | 0.0 | 0.00 | 0.00 | 0.00 | 71 | 1014.6 |
| 20260831031752 | 23 | 244 | 0.0 | 0.0 | 0.00 | 0.00 | 0.00 | 73 | 1014.7 |
| 20260831031251 | 23 | 249 | 0.0 | 0.0 | 0.00 | 0.00 | 0.00 | 74 | 1014.7 |
| 20260831030746 | 23 | 260 | 0.0 | 0.0 | 0.00 | 0.00 | 0.00 | 74 | 1014.7 |
| 20260831030244 | 23 | 224 | 0.0 | 0.0 | 0.00 | 0.00 | 0.00 | 73 | 1014.5 |
| 20260831025743 | 23 | 262 | 0.0 | 0.0 | 0.00 | 0.00 | 0.00 | 72 | 1014.5 |
| 20260831025238 | 23 | 243 | 0.0 | 0.0 | 0.00 | 0.00 | 0.00 | 71 | 1014.7 |
| 20260831024734 | 23 | 255 | 0.0 | 0.0 | 0.00 | 0.00 | 0.00 | 71 | 1014.3 |
| 20260831024233 | 23 | 265 | 0.0 | 0.0 | 0.00 | 0.00 | 0.00 | 70 | 1014.6 |
| 20260831023732 | 23 | 278 | 0.0 | 0.0 | 0.00 | 0.00 | 0.00 | 69 | 1014.5 |
| 20260831023231 | 23 | 265 | 0.0 | 0.0 | 0.00 | 0.00 | 0.00 | 68 | 1014.3 |
| 20260831022726 | 24 | 273 | 0.0 | 0.0 | 0.00 | 0.00 | 0.00 | 69 | 1014.2 |
| 20260831022220 | 24 | 265 | 0.0 | 0.0 | 0.00 | 0.00 | 0.00 | 68 | 1014.1 |
| 20260831021720 | 25 | 254 | 0.0 | 0.0 | 0.00 | 0.00 | 0.00 | 67 | 1014.2 |
| 20260831021214 | 25 | 263 | 0.0 | 0.0 | 0.00 | 0.00 | 0.00 | 66 | 1014.1 |
| 20260831020711 | 25 | 221 | 0.0 | 0.0 | 0.00 | 0.00 | 0.00 | 66 | 1014.1 |
| 20260831020210 | 25 | 275 | 0.0 | 0.0 | 0.00 | 0.00 | 0.00 | 65 | 1014.0 |
| 20260831015706 | 25 | 272 | 0.0 | 0.0 | 0.00 | 0.00 | 0.00 | 63 | 1014.0 |
| 20260831015206 | 26 | 228 | 0.0 | 0.0 | 0.00 | 0.00 | 0.00 | 63 | 1013.7 |
| 20260831014701 | 26 | 299 | 0.0 | 0.0 | 0.00 | 0.00 | 0.00 | 62 | 1013.8 |
| 20260831014156 | 26 | 259 | 0.0 | 0.0 | 0.00 | 0.00 | 0.00 | 61 | 1013.7 |
| 20260831013652 | 26 | 283 | 0.0 | 0.0 | 0.00 | 0.00 | 0.00 | 60 | 1013.6 |
| 20260831013152 | 27 | 269 | 0.0 | 0.0 | 0.00 | 0.00 | 0.00 | 59 | 1013.5 |
| 20260831012647 | 27 | 301 | 0.0 | 0.0 | 0.00 | 0.00 | 0.00 | 56 | 1013.6 |
| 20260831012142 | 28 | 264 | 0.0 | 0.0 | 0.00 | 0.00 | 0.00 | 55 | 1013.6 |
| 20260831011641 | 28 | 283 | 0.0 | 0.0 | 0.00 | 0.00 | 0.00 | 53 | 1013.6 |
| 20260831011137 | 30 | 242 | 0.0 | 0.0 | 0.00 | 0.00 | 0.00 | 52 | 1013.4 |
| 20260831010633 | 30 | 238 | 0.0 | 0.0 | 0.00 | 0.00 | 0.00 | 48 | 1013.5 |
| 20260831010128 | 30 | 193 | 0.0 | 0.0 | 0.00 | 0.00 | 0.00 | 46 | 1013.3 |
| 20260831005628 | 30 | 222 | 0.0 | 1.6 | 0.00 | 0.00 | 0.00 | 45 | 1013.3 |
| 20260831005124 | 30 | 202 | 1.6 | 1.6 | 0.00 | 0.00 | 0.00 | 45 | 1013.3 |
| 20260831004619 | 30 | 239 | 1.6 | 1.6 | 0.00 | 0.00 | 0.00 | 49 | 1013.4 |
| 20260831004115 | 31 | 170 | 0.0 | 1.6 | 0.00 | 0.00 | 0.00 | 46 | 1013.5 |
| 20260831003611 | 30 | 197 | 0.0 | 1.6 | 0.00 | 0.00 | 0.00 | 49 | 1013.7 |
| 20260831003107 | 31 | 219 | 0.0 | 0.0 | 0.00 | 0.00 | 0.00 | 47 | 1013.5 |
| 20260831002605 | 32 | 228 | 0.0 | 0.0 | 0.00 | 0.00 | 0.00 | 43 | 1013.5 |
| 20260831002100 | 33 | 213 | 0.0 | 1.6 | 0.00 | 0.00 | 0.00 | 40 | 1013.4 |
| 20260831001555 | 33 | 228 | 0.0 | 1.6 | 0.00 | 0.00 | 0.00 | 38 | 1013.7 |
| 20260831001052 | 33 | 126 | 4.8 | 6.4 | 0.00 | 0.00 | 0.00 | 37 | 1013.5 |
| 20260831000548 | 33 | 213 | 6.4 | 8.0 | 0.00 | 0.00 | 0.00 | 37 | 1013.4 |
| 20260831000047 | 34 | 200 | 1.6 | 4.8 | 0.00 | 0.00 | 0.00 | 38 | 1013.5 |
| 20260830235546 | 35 | 246 | 0.0 | 1.6 | 0.00 | 0.00 | 0.00 | 37 | 1013.6 |
| 20260830235042 | 35 | 212 | 3.2 | 4.8 | 0.00 | 0.00 | 0.00 | 35 | 1013.5 |
| 20260830234542 | 35 | 206 | 8.0 | 11.3 | 0.00 | 0.00 | 0.00 | 35 | 1013.7 |
| 20260830234038 | 35 | 213 | 3.2 | 4.8 | 0.00 | 0.00 | 0.00 | 35 | 1013.7 |
| 20260830233533 | 35 | 169 | 4.8 | 6.4 | 0.00 | 0.00 | 0.00 | 34 | 1013.5 |
| 20260830233029 | 35 | 213 | 4.8 | 6.4 | 0.00 | 0.00 | 0.00 | 35 | 1013.6 |
| 20260830232525 | 35 | 316 | 6.4 | 11.3 | 0.00 | 0.00 | 0.00 | 33 | 1013.6 |
| 20260830232021 | 36 | 182 | 8.0 | 11.3 | 0.00 | 0.00 | 0.00 | 32 | 1013.7 |
| 20260830231516 | 36 | 199 | 9.7 | 12.9 | 0.00 | 0.00 | 0.00 | 32 | 1013.7 |
| 20260830231015 | 36 | 186 | 12.9 | 16.1 | 0.00 | 0.00 | 0.00 | 31 | 1013.7 |
| 20260830230511 | 36 | 216 | 6.4 | 6.4 | 0.00 | 0.00 | 0.00 | 33 | 1013.5 |
| 20260830230011 | 36 | 208 | 9.7 | 12.9 | 0.00 | 0.00 | 0.00 | 32 | 1013.5 |
| 20260830225506 | 36 | 211 | 4.8 | 8.0 | 0.00 | 0.00 | 0.00 | 32 | 1013.7 |
| 20260830225006 | 36 | 180 | 6.4 | 8.0 | 0.00 | 0.00 | 0.00 | 31 | 1013.6 |
| 20260830224504 | 36 | 183 | 9.7 | 11.3 | 0.00 | 0.00 | 0.00 | 32 | 1013.7 |
| 20260830224001 | 36 | 227 | 6.4 | 8.0 | 0.00 | 0.00 | 0.00 | 32 | 1013.7 |
| 20260830223458 | 36 | 172 | 3.2 | 4.8 | 0.00 | 0.00 | 0.00 | 32 | 1013.7 |
| 20260830222957 | 37 | 249 | 3.2 | 6.4 | 0.00 | 0.00 | 0.00 | 30 | 1013.6 |
| 20260830222452 | 37 | 267 | 1.6 | 1.6 | 0.00 | 0.00 | 0.00 | 31 | 1013.7 |
| 20260830221947 | 36 | 228 | 6.4 | 11.3 | 0.00 | 0.00 | 0.00 | 31 | 1013.7 |
| 20260830221444 | 36 | 187 | 14.5 | 19.3 | 0.00 | 0.00 | 0.00 | 31 | 1013.7 |
| 20260830220939 | 36 | 191 | 4.8 | 4.8 | 0.00 | 0.00 | 0.00 | 32 | 1013.6 |
| 20260830220439 | 36 | 207 | 11.3 | 17.7 | 0.00 | 0.00 | 0.00 | 31 | 1013.7 |
| 20260830215936 | 37 | 272 | 0.0 | 1.6 | 0.00 | 0.00 | 0.00 | 30 | 1013.8 |
| 20260830215432 | 36 | 15 | 4.8 | 6.4 | 0.00 | 0.00 | 0.00 | 31 | 1013.5 |
| 20260830214926 | 36 | 204 | 8.0 | 8.0 | 0.00 | 0.00 | 0.00 | 31 | 1013.8 |
| 20260830214422 | 37 | 234 | 6.4 | 6.4 | 0.00 | 0.00 | 0.00 | 31 | 1013.7 |
| 20260830213922 | 36 | 113 | 4.8 | 6.4 | 0.00 | 0.00 | 0.00 | 31 | 1013.8 |
| 20260830213418 | 36 | 172 | 6.4 | 8.0 | 0.00 | 0.00 | 0.00 | 31 | 1014.0 |
| 20260830212913 | 36 | 227 | 11.3 | 16.1 | 0.00 | 0.00 | 0.00 | 30 | 1013.9 |
| 20260830212409 | 37 | 156 | 8.0 | 12.9 | 0.00 | 0.00 | 0.00 | 29 | 1014.1 |
| 20260830211909 | 38 | 201 | 8.0 | 8.0 | 0.00 | 0.00 | 0.00 | 29 | 1013.9 |
| 20260830211408 | 38 | 251 | 6.4 | 8.0 | 0.00 | 0.00 | 0.00 | 29 | 1014.0 |
| 20260830210904 | 37 | 207 | 6.4 | 8.0 | 0.00 | 0.00 | 0.00 | 29 | 1014.0 |
| 20260830210403 | 38 | 205 | 8.0 | 8.0 | 0.00 | 0.00 | 0.00 | 28 | 1013.9 |
| 20260830205900 | 38 | 207 | 9.7 | 12.9 | 0.00 | 0.00 | 0.00 | 29 | 1013.9 |
| 20260830205400 | 38 | 206 | 9.7 | 11.3 | 0.00 | 0.00 | 0.00 | 28 | 1014.1 |
| 20260830204856 | 38 | 235 | 8.0 | 11.3 | 0.00 | 0.00 | 0.00 | 29 | 1014.1 |
| 20260830204354 | 37 | 282 | 6.4 | 8.0 | 0.00 | 0.00 | 0.00 | 29 | 1014.2 |
| 20260830203850 | 37 | 258 | 3.2 | 4.8 | 0.00 | 0.00 | 0.00 | 30 | 1014.1 |
| 20260830203346 | 38 | 199 | 14.5 | 17.7 | 0.00 | 0.00 | 0.00 | 30 | 1014.4 |
| 20260830202845 | 37 | 221 | 6.4 | 6.4 | 0.00 | 0.00 | 0.00 | 30 | 1014.1 |
| 20260830202341 | 38 | 171 | 9.7 | 12.9 | 0.00 | 0.00 | 0.00 | 28 | 1014.3 |
| 20260830201836 | 38 | 202 | 6.4 | 8.0 | 0.00 | 0.00 | 0.00 | 30 | 1014.4 |
| 20260830201330 | 38 | 108 | 6.4 | 6.4 | 0.00 | 0.00 | 0.00 | 29 | 1014.4 |
| 20260830200826 | 38 | 71 | 3.2 | 4.8 | 0.00 | 0.00 | 0.00 | 29 | 1014.3 |
| 20260830200325 | 38 | 258 | 0.0 | 1.6 | 0.00 | 0.00 | 0.00 | 30 | 1014.5 |
| 20260830195821 | 37 | 197 | 3.2 | 4.8 | 0.00 | 0.00 | 0.00 | 32 | 1014.6 |
| 20260830195321 | 37 | 149 | 8.0 | 8.0 | 0.00 | 0.00 | 0.00 | 32 | 1014.6 |
| 20260830194819 | 38 | 281 | 9.7 | 16.1 | 0.00 | 0.00 | 0.00 | 31 | 1014.7 |
| 20260830194318 | 39 | 221 | 8.0 | 8.0 | 0.00 | 0.00 | 0.00 | 30 | 1014.8 |
| 20260830193814 | 38 | 259 | 1.6 | 1.6 | 0.00 | 0.00 | 0.00 | 30 | 1014.9 |
| 20260830193313 | 37 | 263 | 4.8 | 6.4 | 0.00 | 0.00 | 0.00 | 30 | 1014.8 |
| 20260830192810 | 37 | 197 | 3.2 | 4.8 | 0.00 | 0.00 | 0.00 | 32 | 1014.8 |
| 20260830192309 | 37 | 172 | 8.0 | 11.3 | 0.00 | 0.00 | 0.00 | 31 | 1014.9 |
| 20260830191805 | 38 | 181 | 17.7 | 22.5 | 0.00 | 0.00 | 0.00 | 31 | 1014.9 |
| 20260830191304 | 37 | 229 | 6.4 | 6.4 | 0.00 | 0.00 | 0.00 | 31 | 1015.0 |
| 20260830190800 | 37 | 222 | 8.0 | 8.0 | 0.00 | 0.00 | 0.00 | 34 | 1015.0 |
| 20260830190255 | 36 | 296 | 6.4 | 6.4 | 0.00 | 0.00 | 0.00 | 34 | 1015.0 |
| 20260830185753 | 37 | 171 | 3.2 | 4.8 | 0.00 | 0.00 | 0.00 | 34 | 1015.1 |
| 20260830185249 | 37 | 260 | 6.4 | 11.3 | 0.00 | 0.00 | 0.00 | 33 | 1015.3 |
| 20260830184749 | 37 | 252 | 3.2 | 6.4 | 0.00 | 0.00 | 0.00 | 34 | 1015.5 |
| 20260830184248 | 37 | 196 | 9.7 | 16.1 | 0.00 | 0.00 | 0.00 | 33 | 1015.6 |
| 20260830183743 | 36 | 185 | 8.0 | 11.3 | 0.00 | 0.00 | 0.00 | 35 | 1015.5 |
| 20260830183238 | 36 | 195 | 12.9 | 17.7 | 0.00 | 0.00 | 0.00 | 34 | 1015.5 |
| 20260830182733 | 36 | 195 | 9.7 | 12.9 | 0.00 | 0.00 | 0.00 | 35 | 1015.4 |
| 20260830182229 | 36 | 223 | 9.7 | 12.9 | 0.00 | 0.00 | 0.00 | 35 | 1015.4 |
| 20260830181726 | 36 | 294 | 4.8 | 6.4 | 0.00 | 0.00 | 0.00 | 36 | 1015.5 |
| 20260830181226 | 36 | 228 | 3.2 | 6.4 | 0.00 | 0.00 | 0.00 | 34 | 1015.9 |
| 20260830180724 | 35 | 223 | 6.4 | 8.0 | 0.00 | 0.00 | 0.00 | 37 | 1015.7 |
| 20260830180219 | 36 | 210 | 6.4 | 8.0 | 0.00 | 0.00 | 0.00 | 35 | 1015.7 |
| 20260830175714 | 36 | 261 | 3.2 | 4.8 | 0.00 | 0.00 | 0.00 | 36 | 1016.1 |
| 20260830175208 | 36 | 247 | 3.2 | 4.8 | 0.00 | 0.00 | 0.00 | 35 | 1015.8 |
| 20260830174703 | 36 | 210 | 6.4 | 6.4 | 0.00 | 0.00 | 0.00 | 36 | 1016.2 |
| 20260830174200 | 35 | 287 | 6.4 | 8.0 | 0.00 | 0.00 | 0.00 | 37 | 1015.9 |
| 20260830173659 | 35 | 242 | 4.8 | 6.4 | 0.00 | 0.00 | 0.00 | 35 | 1015.9 |
| 20260830173154 | 35 | 237 | 8.0 | 16.1 | 0.00 | 0.00 | 0.00 | 36 | 1016.3 |
| 20260830172651 | 34 | 190 | 12.9 | 17.7 | 0.00 | 0.00 | 0.00 | 38 | 1016.5 |
| 20260830172147 | 34 | 209 | 11.3 | 12.9 | 0.00 | 0.00 | 0.00 | 37 | 1016.4 |
| 20260830171648 | 35 | 131 | 17.7 | 22.5 | 0.00 | 0.00 | 0.00 | 37 | 1016.4 |
| 20260830171142 | 33 | 157 | 8.0 | 8.0 | 0.00 | 0.00 | 0.00 | 39 | 1016.5 |
| 20260830170637 | 34 | 237 | 3.2 | 8.0 | 0.00 | 0.00 | 0.00 | 39 | 1016.6 |
| 20260830170136 | 35 | 207 | 12.9 | 19.3 | 0.00 | 0.00 | 0.00 | 37 | 1016.6 |
| 20260830165631 | 34 | 239 | 11.3 | 12.9 | 0.00 | 0.00 | 0.00 | 38 | 1016.6 |
| 20260830165127 | 33 | 241 | 8.0 | 11.3 | 0.00 | 0.00 | 0.00 | 38 | 1016.9 |
| 20260830164623 | 33 | 206 | 11.3 | 12.9 | 0.00 | 0.00 | 0.00 | 38 | 1017.1 |
| 20260830164119 | 33 | 219 | 4.8 | 8.0 | 0.00 | 0.00 | 0.00 | 38 | 1016.8 |
| 20260830163616 | 33 | 218 | 8.0 | 8.0 | 0.00 | 0.00 | 0.00 | 39 | 1017.0 |
| 20260830163115 | 33 | 204 | 8.0 | 8.0 | 0.00 | 0.00 | 0.00 | 39 | 1017.1 |
| 20260830162610 | 33 | 209 | 19.3 | 25.7 | 0.00 | 0.00 | 0.00 | 38 | 1017.0 |
| 20260830162106 | 33 | 199 | 17.7 | 24.1 | 0.00 | 0.00 | 0.00 | 38 | 1017.0 |
| 20260830161606 | 33 | 279 | 6.4 | 6.4 | 0.00 | 0.00 | 0.00 | 38 | 1016.9 |
| 20260830161101 | 33 | 266 | 8.0 | 12.9 | 0.00 | 0.00 | 0.00 | 39 | 1016.9 |
| 20260830160557 | 32 | 236 | 12.9 | 16.1 | 0.00 | 0.00 | 0.00 | 40 | 1017.0 |
| 20260830160052 | 32 | 258 | 12.9 | 24.1 | 0.00 | 0.00 | 0.00 | 41 | 1017.0 |
| 20260830155548 | 32 | 237 | 8.0 | 8.0 | 0.00 | 0.00 | 0.00 | 41 | 1017.0 |
| 20260830155044 | 32 | 227 | 6.4 | 8.0 | 0.00 | 0.00 | 0.00 | 41 | 1017.0 |
| 20260830154538 | 32 | 230 | 6.4 | 8.0 | 0.00 | 0.00 | 0.00 | 41 | 1017.0 |
| 20260830154035 | 32 | 225 | 8.0 | 8.0 | 0.00 | 0.00 | 0.00 | 41 | 1017.1 |
| 20260830153531 | 32 | 178 | 20.9 | 24.1 | 0.00 | 0.00 | 0.00 | 41 | 1017.2 |
| 20260830153031 | 31 | 206 | 4.8 | 8.0 | 0.00 | 0.00 | 0.00 | 43 | 1016.8 |
| 20260830152526 | 32 | 218 | 3.2 | 6.4 | 0.00 | 0.00 | 0.00 | 43 | 1016.9 |
| 20260830152025 | 31 | 207 | 1.6 | 4.8 | 0.00 | 0.00 | 0.00 | 44 | 1016.9 |
| 20260830151524 | 31 | 207 | 9.7 | 16.1 | 0.00 | 0.00 | 0.00 | 45 | 1016.9 |
| 20260830151020 | 31 | 194 | 8.0 | 16.1 | 0.00 | 0.00 | 0.00 | 46 | 1016.8 |
| 20260830150519 | 30 | 143 | 6.4 | 6.4 | 0.00 | 0.00 | 0.00 | 45 | 1017.0 |
| 20260830150014 | 30 | 166 | 9.7 | 12.9 | 0.00 | 0.00 | 0.00 | 47 | 1017.0 |
| 20260830145513 | 30 | 208 | 9.7 | 12.9 | 0.00 | 0.00 | 0.00 | 48 | 1017.0 |
| 20260830145009 | 30 | 176 | 11.3 | 17.7 | 0.00 | 0.00 | 0.00 | 48 | 1017.0 |
| 20260830144505 | 29 | 220 | 6.4 | 8.0 | 0.00 | 0.00 | 0.00 | 50 | 1016.9 |
| 20260830144000 | 28 | 199 | 4.8 | 8.0 | 0.00 | 0.00 | 0.00 | 51 | 1017.0 |
| 20260830143456 | 28 | 189 | 4.8 | 6.4 | 0.00 | 0.00 | 0.00 | 52 | 1016.9 |
| 20260830142954 | 28 | 204 | 9.7 | 11.3 | 0.00 | 0.00 | 0.00 | 53 | 1017.0 |
| 20260830142449 | 27 | 211 | 4.8 | 6.4 | 0.00 | 0.00 | 0.00 | 54 | 1017.1 |
| 20260830141944 | 27 | 155 | 0.0 | 0.0 | 0.00 | 0.00 | 0.00 | 57 | 1017.3 |
| 20260830141439 | 27 | 163 | 4.8 | 6.4 | 0.00 | 0.00 | 0.00 | 55 | 1017.2 |
| 20260830140934 | 27 | 196 | 3.2 | 4.8 | 0.00 | 0.00 | 0.00 | 57 | 1017.2 |
| 20260830140430 | 27 | 231 | 1.6 | 1.6 | 0.00 | 0.00 | 0.00 | 57 | 1017.2 |
| 20260830135928 | 26 | 242 | 1.6 | 1.6 | 0.00 | 0.00 | 0.00 | 59 | 1017.3 |
| 20260830135424 | 26 | 224 | 1.6 | 1.6 | 0.00 | 0.00 | 0.00 | 59 | 1017.3 |
| 20260830134920 | 26 | 198 | 3.2 | 4.8 | 0.00 | 0.00 | 0.00 | 59 | 1017.3 |
| 20260830134415 | 26 | 204 | 0.0 | 1.6 | 0.00 | 0.00 | 0.00 | 59 | 1017.2 |
| 20260830133911 | 25 | 203 | 0.0 | 1.6 | 0.00 | 0.00 | 0.00 | 61 | 1017.3 |
| 20260830133406 | 25 | 208 | 3.2 | 4.8 | 0.00 | 0.00 | 0.00 | 62 | 1017.1 |
| 20260830132901 | 24 | 194 | 1.6 | 1.6 | 0.00 | 0.00 | 0.00 | 64 | 1017.1 |
| 20260830132357 | 24 | 185 | 3.2 | 4.8 | 0.00 | 0.00 | 0.00 | 64 | 1017.0 |
| 20260830131856 | 24 | 191 | 1.6 | 1.6 | 0.00 | 0.00 | 0.00 | 64 | 1017.0 |
| 20260830131356 | 23 | 219 | 0.0 | 0.0 | 0.00 | 0.00 | 0.00 | 66 | 1017.2 |
| 20260830130851 | 23 | 209 | 0.0 | 1.6 | 0.00 | 0.00 | 0.00 | 66 | 1017.0 |
| 20260830130347 | 23 | 179 | 0.0 | 1.6 | 0.00 | 0.00 | 0.00 | 67 | 1016.9 |
| 20260830125845 | 22 | 245 | 0.0 | 0.0 | 0.00 | 0.00 | 0.00 | 71 | 1017.0 |
| 20260830125341 | 22 | 274 | 0.0 | 0.0 | 0.00 | 0.00 | 0.00 | 73 | 1017.0 |
| 20260830124839 | 21 | 257 | 0.0 | 0.0 | 0.00 | 0.00 | 0.00 | 75 | 1016.9 |
| 20260830124333 | 20 | 249 | 0.0 | 0.0 | 0.00 | 0.00 | 0.00 | 76 | 1017.1 |
| 20260830123830 | 20 | 263 | 0.0 | 0.0 | 0.00 | 0.00 | 0.00 | 77 | 1016.9 |
| 20260830123327 | 19 | 275 | 0.0 | 0.0 | 0.00 | 0.00 | 0.00 | 81 | 1016.8 |
| 20260830122824 | 19 | 274 | 0.0 | 0.0 | 0.00 | 0.00 | 0.00 | 81 | 1016.8 |
| 20260830122324 | 20 | 284 | 0.0 | 0.0 | 0.00 | 0.00 | 0.00 | 80 | 1016.7 |
| 20260830121820 | 20 | 294 | 0.0 | 1.6 | 0.00 | 0.00 | 0.00 | 79 | 1016.7 |
| 20260830121319 | 20 | 286 | 0.0 | 1.6 | 0.00 | 0.00 | 0.00 | 78 | 1016.5 |
| 20260830120814 | 20 | 294 | 0.0 | 0.0 | 0.00 | 0.00 | 0.00 | 77 | 1016.7 |
| 20260830120310 | 20 | 289 | 0.0 | 0.0 | 0.00 | 0.00 | 0.00 | 77 | 1016.6 |
| 20260830115806 | 20 | 303 | 0.0 | 0.0 | 0.00 | 0.00 | 0.00 | 77 | 1016.8 |
| 20260830115305 | 20 | 269 | 0.0 | 0.0 | 0.00 | 0.00 | 0.00 | 75 | 1016.7 |
| 20260830114758 | 20 | 260 | 0.0 | 0.0 | 0.00 | 0.00 | 0.00 | 74 | 1016.6 |
| 20260830114253 | 20 | 259 | 0.0 | 0.0 | 0.00 | 0.00 | 0.00 | 76 | 1016.4 |
| 20260830113748 | 20 | 213 | 1.6 | 1.6 | 0.00 | 0.00 | 0.00 | 75 | 1016.6 |
| 20260830113243 | 20 | 223 | 0.0 | 0.0 | 0.00 | 0.00 | 0.00 | 73 | 1016.6 |
| 20260830112739 | 21 | 276 | 0.0 | 0.0 | 0.00 | 0.00 | 0.00 | 71 | 1016.5 |
| 20260830112236 | 21 | 289 | 0.0 | 0.0 | 0.00 | 0.00 | 0.00 | 72 | 1016.5 |
| 20260830111731 | 21 | 272 | 0.0 | 0.0 | 0.00 | 0.00 | 0.00 | 67 | 1016.4 |
| 20260830111226 | 21 | 228 | 0.0 | 0.0 | 0.00 | 0.00 | 0.00 | 69 | 1016.4 |
| 20260830110726 | 21 | 241 | 0.0 | 1.6 | 0.00 | 0.00 | 0.00 | 68 | 1016.4 |